EN

Hourly Weather Aberdeen

Today, 20 June, Sunday

Time Temperature Precipitation Wind Pressure Humidity
00:00 +18°C° 0.7 mm 2 mps 717 mmHg 90%
01:00 +17°C° 0.7 mm 2 mps 717 mmHg 91%
02:00 +17°C° 0.7 mm 2 mps 716 mmHg 92%
03:00 +17°C° 0.1 mm 2 mps 716 mmHg 92%
04:00 +17°C° 0.1 mm 2 mps 716 mmHg 92%
05:00 +17°C° 0.1 mm 2 mps 715 mmHg 92%
06:00 +18°C° 0 mm 4 mps 716 mmHg 88%
07:00 +19°C° 0 mm 6 mps 716 mmHg 84%
08:00 +18°C° 0 mm 8 mps 717 mmHg 81%
09:00 +18°C° 0 mm 8 mps 717 mmHg 77%
10:00 +18°C° 0 mm 9 mps 718 mmHg 73%
11:00 +17°C° 0 mm 9 mps 719 mmHg 69%
12:00 +19°C° 0.1 mm 9 mps 720 mmHg 60%
13:00 +22°C° 0.1 mm 8 mps 720 mmHg 51%
14:00 +23°C° 0.1 mm 8 mps 720 mmHg 42%
15:00 +23°C° 0.1 mm 8 mps 721 mmHg 45%
16:00 +22°C° 0.1 mm 8 mps 721 mmHg 47%
17:00 +21°C° 0.1 mm 8 mps 722 mmHg 50%
18:00 +18°C° 0 mm 7 mps 723 mmHg 53%
19:00 +17°C° 0 mm 5 mps 723 mmHg 55%
20:00 +15°C° 0 mm 4 mps 724 mmHg 58%
21:00 +13°C° 0 mm 4 mps 724 mmHg 65%
22:00 +12°C° 0 mm 3 mps 725 mmHg 72%
23:00 +10°C° 0 mm 3 mps 725 mmHg 79%

Tomorrow, 21 June, Monday

Time Temperature Precipitation Wind Pressure Humidity
00:00 +10°C° 0 mm 3 mps 726 mmHg 80%
01:00 +9°C° 0 mm 2 mps 726 mmHg 81%
02:00 +8°C° 0 mm 2 mps 727 mmHg 82%
03:00 +8°C° 0 mm 2 mps 727 mmHg 80%
04:00 +8°C° 0 mm 2 mps 727 mmHg 78%
05:00 +8°C° 0 mm 2 mps 728 mmHg 77%
06:00 +12°C° 0 mm 2 mps 728 mmHg 66%
07:00 +13°C° 0 mm 3 mps 728 mmHg 55%
08:00 +16°C° 0 mm 3 mps 728 mmHg 44%
09:00 +18°C° 0 mm 3 mps 727 mmHg 38%
10:00 +19°C° 0 mm 4 mps 727 mmHg 32%
11:00 +21°C° 0 mm 5 mps 727 mmHg 26%
12:00 +22°C° 0 mm 5 mps 726 mmHg 24%
13:00 +23°C° 0 mm 5 mps 726 mmHg 22%
14:00 +25°C° 0 mm 5 mps 725 mmHg 20%
15:00 +23°C° 0 mm 5 mps 725 mmHg 20%
16:00 +23°C° 0 mm 5 mps 724 mmHg 20%
17:00 +23°C° 0 mm 4 mps 724 mmHg 21%
18:00 +20°C° 0 mm 4 mps 724 mmHg 26%
19:00 +18°C° 0 mm 4 mps 723 mmHg 32%
20:00 +14°C° 0 mm 3 mps 723 mmHg 37%
21:00 +13°C° 0 mm 3 mps 723 mmHg 42%
22:00 +12°C° 0 mm 3 mps 723 mmHg 47%
23:00 +11°C° 0 mm 3 mps 723 mmHg 52%

Day after tomorrow, 22 June, Tuesday

Time Temperature Precipitation Wind Pressure Humidity
00:00 +13°C° 0 mm 2 mps 723 mmHg 51%
01:00 +13°C° 0 mm 2 mps 723 mmHg 50%
02:00 +13°C° 0 mm 2 mps 722 mmHg 50%
03:00 +13°C° 0 mm 2 mps 722 mmHg 51%
04:00 +13°C° 0 mm 2 mps 722 mmHg 53%
05:00 +13°C° 0 mm 2 mps 721 mmHg 54%
06:00 +16°C° 0 mm 2 mps 721 mmHg 49%
07:00 +19°C° 0 mm 2 mps 721 mmHg 44%
08:00 +23°C° 0 mm 2 mps 721 mmHg 39%
09:00 +25°C° 0 mm 2 mps 721 mmHg 34%
10:00 +28°C° 0 mm 2 mps 721 mmHg 30%
11:00 +30°C° 0 mm 2 mps 721 mmHg 25%
12:00 +31°C° 0 mm 2 mps 720 mmHg 23%
13:00 +32°C° 0 mm 2 mps 720 mmHg 21%
14:00 +32°C° 0 mm 2 mps 720 mmHg 19%
15:00 +32°C° 0 mm 2 mps 719 mmHg 19%
16:00 +32°C° 0 mm 2 mps 719 mmHg 19%
17:00 +32°C° 0 mm 2 mps 719 mmHg 19%
18:00 +29°C° 0 mm 2 mps 719 mmHg 25%
19:00 +26°C° 0 mm 2 mps 719 mmHg 31%
20:00 +23°C° 0 mm 2 mps 719 mmHg 36%
21:00 +21°C° 0 mm 3 mps 719 mmHg 50%
22:00 +19°C° 0 mm 3 mps 719 mmHg 64%
23:00 +18°C° 0 mm 4 mps 719 mmHg 77%

23 June, Wednesday

Time Temperature Precipitation Wind Pressure Humidity
00:00 +18°C° 0 mm 3 mps 719 mmHg 83%
01:00 +17°C° 0 mm 3 mps 718 mmHg 90%
02:00 +17°C° 0 mm 3 mps 718 mmHg 96%
03:00 +17°C° 0 mm 3 mps 718 mmHg 93%
04:00 +18°C° 0 mm 3 mps 718 mmHg 91%
05:00 +18°C° 0 mm 4 mps 718 mmHg 89%
06:00 +21°C° 0 mm 4 mps 718 mmHg 73%
07:00 +26°C° 0 mm 5 mps 718 mmHg 58%
08:00 +29°C° 0 mm 6 mps 718 mmHg 42%
09:00 +33°C° 0 mm 6 mps 718 mmHg 36%
10:00 +36°C° 0 mm 6 mps 718 mmHg 29%
11:00 +39°C° 0 mm 6 mps 718 mmHg 22%
12:00 +41°C° 0 mm 6 mps 717 mmHg 20%
13:00 +42°C° 0 mm 5 mps 717 mmHg 17%
14:00 +43°C° 0 mm 5 mps 716 mmHg 15%
15:00 +43°C° 0 mm 4 mps 716 mmHg 15%
16:00 +43°C° 0 mm 4 mps 716 mmHg 16%
17:00 +42°C° 0 mm 4 mps 715 mmHg 16%
18:00 +37°C° 0 mm 4 mps 716 mmHg 29%
19:00 +32°C° 0 mm 4 mps 717 mmHg 42%
20:00 +26°C° 0 mm 4 mps 717 mmHg 55%
21:00 +25°C° 0.4 mm 5 mps 717 mmHg 64%
22:00 +23°C° 0.4 mm 5 mps 717 mmHg 72%
23:00 +22°C° 0.4 mm 5 mps 717 mmHg 80%

24 June, Thursday

Time Temperature Precipitation Wind Pressure Humidity
00:00 +21°C° 0 mm 4 mps 718 mmHg 82%
01:00 +20°C° 0 mm 3 mps 718 mmHg 84%
02:00 +19°C° 0 mm 2 mps 718 mmHg 86%
03:00 +19°C° 0 mm 3 mps 718 mmHg 85%
04:00 +19°C° 0 mm 4 mps 719 mmHg 85%
05:00 +19°C° 0 mm 4 mps 719 mmHg 85%
06:00 +22°C° 0 mm 5 mps 720 mmHg 72%
07:00 +25°C° 0 mm 5 mps 721 mmHg 58%
08:00 +28°C° 0 mm 5 mps 721 mmHg 45%
09:00 +29°C° 0 mm 5 mps 722 mmHg 40%
10:00 +32°C° 0 mm 5 mps 722 mmHg 36%
11:00 +33°C° 0 mm 5 mps 723 mmHg 31%
12:00 +33°C° 0 mm 5 mps 723 mmHg 31%
13:00 +34°C° 0 mm 5 mps 723 mmHg 30%
14:00 +34°C° 0 mm 4 mps 723 mmHg 29%
15:00 +29°C° 0.5 mm 5 mps 724 mmHg 45%
16:00 +24°C° 0.5 mm 6 mps 724 mmHg 62%
17:00 +20°C° 0.5 mm 7 mps 725 mmHg 78%
18:00 +20°C° 0.1 mm 6 mps 725 mmHg 77%
19:00 +19°C° 0.1 mm 5 mps 726 mmHg 76%
20:00 +18°C° 0.1 mm 4 mps 726 mmHg 75%
21:00 +17°C° 0 mm 4 mps 726 mmHg 73%
22:00 +17°C° 0 mm 4 mps 727 mmHg 71%
23:00 +15°C° 0 mm 4 mps 727 mmHg 68%

25 June, Friday

Time Temperature Precipitation Wind Pressure Humidity
00:00 +14°C° 0 mm 3 mps 727 mmHg 71%
01:00 +13°C° 0 mm 3 mps 727 mmHg 74%
02:00 +14°C° 0 mm 2 mps 727 mmHg 76%
03:00 +14°C° 0 mm 2 mps 727 mmHg 75%
04:00 +14°C° 0 mm 2 mps 728 mmHg 73%
05:00 +15°C° 0 mm 1 mps 728 mmHg 71%
06:00 +17°C° 0 mm 2 mps 728 mmHg 62%
07:00 +20°C° 0 mm 3 mps 729 mmHg 52%
08:00 +24°C° 0 mm 3 mps 729 mmHg 43%
09:00 +25°C° 0 mm 4 mps 728 mmHg 37%
10:00 +27°C° 0 mm 4 mps 728 mmHg 32%
11:00 +28°C° 0 mm 5 mps 728 mmHg 27%
12:00 +29°C° 0 mm 5 mps 728 mmHg 25%
13:00 +29°C° 0 mm 6 mps 727 mmHg 23%
14:00 +30°C° 0 mm 6 mps 727 mmHg 21%
15:00 +30°C° 0 mm 6 mps 727 mmHg 21%
16:00 +29°C° 0 mm 5 mps 727 mmHg 22%
17:00 +29°C° 0 mm 5 mps 727 mmHg 23%
18:00 +26°C° 0 mm 4 mps 727 mmHg 30%
19:00 +23°C° 0 mm 4 mps 727 mmHg 36%
20:00 +20°C° 0 mm 3 mps 727 mmHg 43%
21:00 +19°C° 0 mm 2 mps 727 mmHg 47%
22:00 +18°C° 0 mm 2 mps 728 mmHg 52%
23:00 +18°C° 0 mm 1 mps 728 mmHg 56%
Show more